Location: Geçitköy
(36.7327°N, 29.8010°E)
Time: 18:47:06
(UTC+00:00)

Cosmos 1953 - Pass Details

Date: 12 January 2026
Orbit: 474 x 489 km, 82.5° (Epoch: 10 February)

Event Time Altitude Azimuth Distance (km) Brightness Sun altitude
Rises 15:42:09 0° 7° (N) 2,579 5.5 -7.6°
Reaches altitude 10° 15:44:33 10° 21° (NNE) 1,693 4.4 -8.0°
Maximum altitude 15:47:38 25° 77° (ENE) 1,040 3.1 -8.6°
Drops below altitude 10° 15:50:42 10° 134° (SE) 1,681 4.5 -9.2°
Sets 15:53:04 0° 148° (SSE) 2,556 5.6 -9.6°
